Tracking 22456 objects as of 7-Mar-2021
HD Live streaming from Space Station
objects crossing your sky now

SL-6 R/B(2)

Track SL-6 R/B(2) now!
10-day predictions


NORAD ID: 12827
Int'l Code: 1981-088F
Perigee: 974.4 km
Apogee: 13,436.8 km
Inclination: 63.2 °
Period: 262.4 minutes
Semi major axis: 13576 km
RCS: 6.5355 m2 (large)
Launch date: September 11, 1981
Source: Commonwealth of Independent States (former USSR) (CIS)
Launch site: PLESETSK MISSILE AND SPACE COMPLEX (PKMTR)

Note: This is a ROCKET BODY
aabbcc
Your satellite tracking list
Your tracking list is empty




NASA's NSSDC Master Catalog

Two Line Element Set (TLE):
1 12827U 81088F   21065.45532801 -.00000026  00000-0  00000-0 0  9996
2 12827  63.2345 306.1743 4589643 209.5203 347.2644  5.48800639791302
Source of the keplerian elements: AFSPC